Location: Bussy-Saint-Georges
(48.8410°N, 2.7017°E)
Time: 22:52:07
(UTC+00:00)

Cosmos 1980 Rocket - Pass Details

Date: 18 October 2021
Orbit: 828 x 851 km, 71.0° (Epoch: 07 December)

Event Time Altitude Azimuth Distance (km) Brightness Sun altitude
Rises 18:27:38 0° 211° (SSW) 3,380 5.7 -16.2°
Reaches altitude 10° 18:30:04 10° 213° (SSW) 2,453 5.0 -16.6°
Maximum altitude 18:35:42 76° 299° (WNW) 875 2.4 -17.5°
Drops below altitude 10° 18:41:25 10° 26° (NNE) 2,483 4.4 -18.5°
Sets 18:43:53 0° 28° (NNE) 3,424 5.2 -18.9°
